HSKCS VVDN-VVTS

Flight info

Callsign HSKCS
Flight time 1h 10m
Altitude 48000
Route SADIN1G SADIN Q1 DOVIN DOVIN5E
Aircraft C750/M-SBDE3FGHRWXY/S

Departure

Time 2026-04-21 14:04
Airport Da Nang International Airport (VVDN)

Arrival

Time 2026-04-21 15:15
Airport Tan Son Nhat International Airport (VVTS)
Time Latitude Longitude Altitude Speed Heading
2026-04-21 13:36 16.04997 108.20214 46 ft 0 kts 81°
2026-04-21 13:55 16.04997 108.20215 46 ft 0 kts 81°
2026-04-21 13:56 16.05001 108.20239 47 ft 5 kts 82°
2026-04-21 13:56 16.04975 108.20261 47 ft 6 kts 173°
2026-04-21 13:56 16.04932 108.20267 48 ft 5 kts 172°
2026-04-21 13:56 16.04920 108.20252 48 ft 5 kts 287°
2026-04-21 13:57 16.04941 108.20187 47 ft 12 kts 272°
2026-04-21 13:57 16.04930 108.20110 47 ft 8 kts 234°
2026-04-21 13:57 16.04873 108.20110 48 ft 8 kts 172°
2026-04-21 13:57 16.04808 108.20119 49 ft 10 kts 172°
2026-04-21 13:58 16.04716 108.20132 49 ft 14 kts 172°
2026-04-21 13:58 16.04612 108.20147 49 ft 15 kts 171°
2026-04-21 13:58 16.04507 108.20163 49 ft 15 kts 172°
2026-04-21 13:58 16.04401 108.20179 49 ft 15 kts 173°
2026-04-21 13:59 16.04293 108.20193 49 ft 15 kts 172°
2026-04-21 13:59 16.04182 108.20209 49 ft 16 kts 171°
2026-04-21 13:59 16.04073 108.20225 50 ft 15 kts 172°
2026-04-21 13:59 16.03969 108.20242 51 ft 14 kts 170°
2026-04-21 14:00 16.03868 108.20260 52 ft 14 kts 169°
2026-04-21 14:00 16.03765 108.20271 51 ft 15 kts 174°
2026-04-21 14:00 16.03651 108.20288 49 ft 17 kts 172°
2026-04-21 14:00 16.03533 108.20305 49 ft 17 kts 172°
2026-04-21 14:01 16.03412 108.20322 49 ft 17 kts 172°
2026-04-21 14:01 16.03291 108.20339 50 ft 16 kts 173°
2026-04-21 14:01 16.03180 108.20355 52 ft 15 kts 172°
2026-04-21 14:01 16.03074 108.20370 52 ft 14 kts 173°
2026-04-21 14:02 16.02986 108.20380 52 ft 9 kts 178°
2026-04-21 14:02 16.02949 108.20371 52 ft 6 kts 213°
2026-04-21 14:02 16.02925 108.20332 53 ft 6 kts 251°
2026-04-21 14:03 16.02936 108.20248 53 ft 5 kts 350°
2026-04-21 14:03 16.02937 108.20248 53 ft 0 kts 351°
2026-04-21 14:03 16.02938 108.20248 53 ft 0 kts 351°
2026-04-21 14:04 16.02984 108.20241 53 ft 15 kts 352°
2026-04-21 14:04 16.03429 108.20174 50 ft 121 kts 354°
2026-04-21 14:04 16.04557 108.20004 208 ft 201 kts 352°
2026-04-21 14:04 16.06107 108.19784 955 ft 241 kts 352°
2026-04-21 14:05 16.07801 108.19654 2280 ft 252 kts 356°
2026-04-21 14:05 16.09484 108.19628 3896 ft 245 kts
2026-04-21 14:05 16.11175 108.19605 5096 ft 255 kts 358°
2026-04-21 14:05 16.12992 108.19561 6226 ft 267 kts 359°
2026-04-21 14:06 16.14866 108.19575 7346 ft 276 kts
2026-04-21 14:06 16.16648 108.20364 8188 ft 292 kts 42°
2026-04-21 14:06 16.17731 108.22110 9299 ft 295 kts 75°
2026-04-21 14:06 16.17766 108.24205 10400 ft 297 kts 102°
2026-04-21 14:07 16.17569 108.26341 11386 ft 303 kts 90°
2026-04-21 14:07 16.17568 108.28539 12354 ft 309 kts 90°
2026-04-21 14:07 16.17592 108.30758 13267 ft 316 kts 89°
2026-04-21 14:07 16.17617 108.33065 14184 ft 320 kts 89°
2026-04-21 14:08 16.17522 108.35367 15038 ft 325 kts 101°
2026-04-21 14:08 16.16502 108.37445 15839 ft 331 kts 130°
2026-04-21 14:08 16.14608 108.38924 16031 ft 358 kts 155°
2026-04-21 14:08 16.12101 108.39461 16077 ft 383 kts 180°
2026-04-21 14:09 16.09398 108.38961 16134 ft 404 kts 194°
2026-04-21 14:09 16.06507 108.38840 16124 ft 425 kts 173°
2026-04-21 14:09 16.03523 108.38986 16175 ft 439 kts 185°
2026-04-21 14:09 16.00445 108.38972 16757 ft 438 kts 174°
2026-04-21 14:10 15.97432 108.39049 17369 ft 435 kts 184°
2026-04-21 14:10 15.94396 108.39149 17973 ft 434 kts 173°
2026-04-21 14:10 15.91398 108.39439 18566 ft 433 kts 176°
2026-04-21 14:10 15.88365 108.39352 19050 ft 437 kts 191°
2026-04-21 14:11 15.85441 108.38532 19866 ft 437 kts 193°
2026-04-21 14:11 15.82496 108.37798 20848 ft 433 kts 196°
2026-04-21 14:11 15.79617 108.37013 21746 ft 430 kts 194°
2026-04-21 14:11 15.76711 108.36219 22639 ft 428 kts 194°
2026-04-21 14:12 15.73850 108.35453 23448 ft 429 kts 194°
2026-04-21 14:12 15.70956 108.34671 24310 ft 428 kts 194°
2026-04-21 14:12 15.68103 108.33900 25161 ft 427 kts 195°
2026-04-21 14:12 15.65205 108.33119 26000 ft 426 kts 195°
2026-04-21 14:13 15.62370 108.32354 26811 ft 425 kts 195°
2026-04-21 14:13 15.59497 108.31579 27608 ft 425 kts 195°
2026-04-21 14:13 15.56619 108.30804 28383 ft 424 kts 195°
2026-04-21 14:13 15.53785 108.30042 29160 ft 423 kts 195°
2026-04-21 14:14 15.50953 108.29277 29914 ft 421 kts 195°
2026-04-21 14:14 15.48112 108.28513 30628 ft 421 kts 196°
2026-04-21 14:14 15.45281 108.27750 31287 ft 421 kts 196°
2026-04-21 14:14 15.42444 108.26987 31978 ft 419 kts 196°
2026-04-21 14:15 15.39620 108.26224 32651 ft 418 kts 196°
2026-04-21 14:15 15.36825 108.25474 33334 ft 418 kts 196°
2026-04-21 14:15 15.34019 108.24717 34011 ft 418 kts 196°
2026-04-21 14:15 15.31216 108.23962 34728 ft 416 kts 196°
2026-04-21 14:16 15.28405 108.23207 35291 ft 418 kts 196°
2026-04-21 14:16 15.25536 108.22434 35425 ft 430 kts 196°
2026-04-21 14:16 15.22555 108.21633 35606 ft 440 kts 196°
2026-04-21 14:16 15.19540 108.20824 35785 ft 450 kts 196°
2026-04-21 14:17 15.16435 108.19988 35961 ft 459 kts 195°
2026-04-21 14:17 15.13305 108.19149 36138 ft 468 kts 195°
2026-04-21 14:17 15.10099 108.18295 36313 ft 477 kts 194°
2026-04-21 14:17 15.06822 108.17706 36510 ft 485 kts 186°
2026-04-21 14:18 15.03434 108.17548 36955 ft 487 kts 180°
2026-04-21 14:18 15.00050 108.17527 37537 ft 485 kts 181°
2026-04-21 14:18 14.96681 108.17467 38084 ft 485 kts 181°
2026-04-21 14:18 14.93311 108.17396 38632 ft 484 kts 181°
2026-04-21 14:19 14.89947 108.17322 39182 ft 483 kts 181°
2026-04-21 14:19 14.86555 108.17248 39871 ft 479 kts 181°
2026-04-21 14:19 14.83245 108.17177 40518 ft 475 kts 181°
2026-04-21 14:19 14.79937 108.17103 41226 ft 471 kts 181°
2026-04-21 14:20 14.76658 108.17030 41868 ft 468 kts 181°
2026-04-21 14:20 14.73425 108.16960 42469 ft 465 kts 181°
2026-04-21 14:20 14.70200 108.16888 43070 ft 462 kts 181°
2026-04-21 14:20 14.66973 108.16818 43595 ft 460 kts 181°
2026-04-21 14:21 14.63822 108.16748 44143 ft 457 kts 181°
2026-04-21 14:21 14.60617 108.16678 44624 ft 455 kts 181°
2026-04-21 14:21 14.57462 108.16608 45062 ft 454 kts 181°
2026-04-21 14:22 14.51019 108.16464 45024 ft 467 kts 181°
2026-04-21 14:22 14.44458 108.16320 45030 ft 477 kts 181°
2026-04-21 14:23 14.37701 108.16171 45033 ft 487 kts 181°
2026-04-21 14:23 14.30821 108.16020 45039 ft 497 kts 181°
2026-04-21 14:24 14.23795 108.15869 45039 ft 506 kts 181°
2026-04-21 14:24 14.16681 108.15717 45032 ft 513 kts 181°
2026-04-21 14:25 14.09463 108.15563 45013 ft 517 kts 181°
2026-04-21 14:25 14.02280 108.15410 45011 ft 518 kts 181°
2026-04-21 14:26 13.95040 108.15252 45003 ft 519 kts 181°
2026-04-21 14:26 13.87818 108.15093 44987 ft 519 kts 181°
2026-04-21 14:27 13.80585 108.14937 44972 ft 519 kts 181°
2026-04-21 14:27 13.73336 108.14781 44962 ft 518 kts 181°
2026-04-21 14:28 13.66085 108.14625 44966 ft 518 kts 181°
2026-04-21 14:28 13.58879 108.14469 44952 ft 518 kts 181°
2026-04-21 14:29 13.51666 108.14314 44938 ft 518 kts 181°
2026-04-21 14:29 13.44425 108.14156 44942 ft 518 kts 181°
2026-04-21 14:30 13.37201 108.14000 44941 ft 517 kts 181°
2026-04-21 14:30 13.29976 108.13844 44949 ft 516 kts 181°
2026-04-21 14:31 13.22806 108.13689 44950 ft 515 kts 181°
2026-04-21 14:31 13.15621 108.13533 44950 ft 515 kts 181°
2026-04-21 14:32 13.08441 108.13377 44933 ft 516 kts 181°
2026-04-21 14:32 13.01231 108.13221 44932 ft 516 kts 181°
2026-04-21 14:33 12.94014 108.13064 44945 ft 516 kts 181°
2026-04-21 14:33 12.86820 108.12907 44943 ft 516 kts 181°
2026-04-21 14:34 12.79626 108.12751 44952 ft 515 kts 181°
2026-04-21 14:34 12.72419 108.12595 44957 ft 515 kts 181°
2026-04-21 14:35 12.65294 108.12439 44955 ft 514 kts 181°
2026-04-21 14:35 12.58109 108.12283 44954 ft 515 kts 181°
2026-04-21 14:36 12.50902 108.12127 44959 ft 515 kts 181°
2026-04-21 14:36 12.47380 108.12051 44970 ft 498 kts 181°
2026-04-21 14:36 12.43945 108.11977 44948 ft 481 kts 181°
2026-04-21 14:36 12.40683 108.11906 44965 ft 466 kts 181°
2026-04-21 14:37 12.37438 108.11836 44984 ft 452 kts 181°
2026-04-21 14:37 12.34343 108.11770 44990 ft 438 kts 181°
2026-04-21 14:37 12.31327 108.11660 44946 ft 423 kts 182°
2026-04-21 14:37 12.28469 108.11557 44803 ft 408 kts 181°
2026-04-21 14:38 12.25647 108.11488 44463 ft 403 kts 181°
2026-04-21 14:38 12.22820 108.11426 43678 ft 404 kts 181°
2026-04-21 14:38 12.20005 108.11369 42971 ft 404 kts 181°
2026-04-21 14:38 12.17189 108.11311 42267 ft 404 kts 181°
2026-04-21 14:39 12.14374 108.11255 41567 ft 404 kts 181°
2026-04-21 14:39 12.11560 108.11199 40869 ft 404 kts 180°
2026-04-21 14:39 12.08748 108.11143 39953 ft 411 kts 180°
2026-04-21 14:39 12.05902 108.11086 39787 ft 399 kts 180°
2026-04-21 14:40 12.03114 108.11033 38866 ft 406 kts 180°
2026-04-21 14:40 12.00237 108.10976 37765 ft 415 kts 180°
2026-04-21 14:40 11.97354 108.10910 37002 ft 417 kts 182°
2026-04-21 14:40 11.94459 108.10563 36198 ft 420 kts 191°
2026-04-21 14:41 11.91606 108.09765 35442 ft 426 kts 199°
2026-04-21 14:41 11.88866 108.08608 34735 ft 430 kts 207°
2026-04-21 14:41 11.86279 108.07048 34108 ft 430 kts 216°
2026-04-21 14:41 11.83952 108.05128 33530 ft 430 kts 224°
2026-04-21 14:42 11.81765 108.03040 32953 ft 430 kts 222°
2026-04-21 14:42 11.79455 108.01087 32389 ft 431 kts 220°
2026-04-21 14:42 11.77106 107.99177 31819 ft 435 kts 219°
2026-04-21 14:42 11.74736 107.97273 31259 ft 439 kts 219°
2026-04-21 14:43 11.72302 107.95328 30694 ft 442 kts 219°
2026-04-21 14:43 11.69891 107.93401 30138 ft 444 kts 219°
2026-04-21 14:43 11.67464 107.91465 29561 ft 446 kts 218°
2026-04-21 14:43 11.64991 107.89494 28914 ft 449 kts 218°
2026-04-21 14:44 11.62526 107.87528 28203 ft 454 kts 218°
2026-04-21 14:44 11.60034 107.85541 27479 ft 457 kts 218°
2026-04-21 14:44 11.57522 107.83542 26821 ft 458 kts 218°
2026-04-21 14:44 11.55023 107.81551 26225 ft 452 kts 218°
2026-04-21 14:45 11.52561 107.79589 25647 ft 446 kts 218°
2026-04-21 14:45 11.50118 107.77644 25033 ft 442 kts 218°
2026-04-21 14:45 11.47727 107.75740 24361 ft 439 kts 218°
2026-04-21 14:45 11.45294 107.73802 23614 ft 437 kts 218°
2026-04-21 14:46 11.42925 107.71916 22891 ft 431 kts 218°
2026-04-21 14:46 11.40599 107.70064 22193 ft 419 kts 217°
2026-04-21 14:46 11.38330 107.68262 21531 ft 407 kts 217°
2026-04-21 14:46 11.36143 107.66523 20883 ft 398 kts 217°
2026-04-21 14:47 11.33979 107.64803 20237 ft 389 kts 217°
2026-04-21 14:47 11.31869 107.63126 19605 ft 382 kts 217°
2026-04-21 14:47 11.29783 107.61468 18973 ft 375 kts 217°
2026-04-21 14:47 11.27731 107.59836 18355 ft 368 kts 217°
2026-04-21 14:48 11.25730 107.58245 17750 ft 362 kts 217°
2026-04-21 14:48 11.23767 107.56686 17160 ft 359 kts 217°
2026-04-21 14:48 11.21809 107.55131 16580 ft 357 kts 217°
2026-04-21 14:48 11.19850 107.53578 15995 ft 356 kts 217°
2026-04-21 14:49 11.17893 107.52023 15406 ft 355 kts 217°
2026-04-21 14:49 11.15963 107.50491 14813 ft 354 kts 217°
2026-04-21 14:49 11.14014 107.48944 14202 ft 352 kts 217°
2026-04-21 14:49 11.12101 107.47427 13589 ft 352 kts 217°
2026-04-21 14:50 11.10154 107.45881 12956 ft 351 kts 217°
2026-04-21 14:50 11.08238 107.44360 12320 ft 351 kts 217°
2026-04-21 14:50 11.06298 107.42824 11654 ft 349 kts 217°
2026-04-21 14:50 11.04392 107.41310 11042 ft 344 kts 219°
2026-04-21 14:51 11.02726 107.39668 10901 ft 327 kts 230°
2026-04-21 14:51 11.01476 107.37835 10874 ft 308 kts 241°
2026-04-21 14:51 11.00600 107.35865 10886 ft 306 kts 252°
2026-04-21 14:51 10.99942 107.33835 10890 ft 303 kts 253°
2026-04-21 14:52 10.99311 107.31791 10889 ft 300 kts 254°
2026-04-21 14:52 10.98624 107.29779 10883 ft 297 kts 246°
2026-04-21 14:52 10.97598 107.27996 10885 ft 294 kts 233°
2026-04-21 14:52 10.96203 107.26455 10886 ft 291 kts 220°
2026-04-21 14:53 10.94563 107.25285 10888 ft 288 kts 208°
2026-04-21 14:53 10.92707 107.24481 10891 ft 285 kts 195°
2026-04-21 14:53 10.90783 107.24068 10892 ft 282 kts 189°
2026-04-21 14:53 10.88917 107.23459 11009 ft 277 kts 204°
2026-04-21 14:54 10.87268 107.22463 10997 ft 278 kts 217°
2026-04-21 14:54 10.85860 107.21101 11006 ft 283 kts 230°
2026-04-21 14:54 10.84744 107.19411 10941 ft 291 kts 243°
2026-04-21 14:54 10.83986 107.17501 10643 ft 296 kts 255°
2026-04-21 14:55 10.83623 107.15457 10163 ft 289 kts 268°
2026-04-21 14:55 10.83691 107.13451 9680 ft 281 kts 281°
2026-04-21 14:55 10.84241 107.10926 9043 ft 274 kts 283°
2026-04-21 14:55 10.84441 107.09647 8721 ft 271 kts 281°
2026-04-21 14:56 10.84713 107.07755 8234 ft 267 kts 280°
2026-04-21 14:56 10.84964 107.05898 7750 ft 264 kts 280°
2026-04-21 14:56 10.85210 107.04086 7274 ft 260 kts 280°
2026-04-21 14:56 10.85455 107.02257 6788 ft 256 kts 280°
2026-04-21 14:57 10.85693 107.00478 6312 ft 253 kts 281°
2026-04-21 14:57 10.85938 106.98734 5832 ft 250 kts 282°
2026-04-21 14:57 10.86167 106.96986 5340 ft 249 kts 279°
2026-04-21 14:57 10.86396 106.95266 4860 ft 247 kts 279°
2026-04-21 14:58 10.86626 106.93539 4490 ft 244 kts 278°
2026-04-21 14:58 10.86852 106.91837 4186 ft 241 kts 278°
2026-04-21 14:58 10.87085 106.90152 3891 ft 240 kts 280°
2026-04-21 14:58 10.87365 106.88491 3599 ft 241 kts 278°
2026-04-21 14:59 10.87629 106.86809 3310 ft 241 kts 278°
2026-04-21 14:59 10.87926 106.85134 3021 ft 242 kts 284°
2026-04-21 14:59 10.88503 106.83524 2736 ft 243 kts 290°
2026-04-21 14:59 10.88905 106.81854 2470 ft 237 kts 274°
2026-04-21 15:00 10.88862 106.80193 2195 ft 236 kts 257°
2026-04-21 15:00 10.88378 106.78645 1971 ft 229 kts 234°
2026-04-21 15:00 10.87415 106.77372 1877 ft 226 kts 223°
2026-04-21 15:00 10.86424 106.76158 2004 ft 210 kts 232°
2026-04-21 15:01 10.85803 106.74923 1844 ft 190 kts 239°
2026-04-21 15:01 10.85310 106.73702 1616 ft 185 kts 242°
2026-04-21 15:01 10.84815 106.72491 1329 ft 184 kts 242°
2026-04-21 15:01 10.84711 106.72231 1274 ft 182 kts 243°
2026-04-21 15:02 10.84183 106.70776 901 ft 152 kts 244°
2026-04-21 15:02 10.83939 106.70127 768 ft 143 kts 244°
2026-04-21 15:02 10.83598 106.69235 619 ft 127 kts 243°
2026-04-21 15:02 10.83259 106.68350 466 ft 130 kts 245°
2026-04-21 15:03 10.82937 106.67499 288 ft 127 kts 244°
2026-04-21 15:03 10.82600 106.66625 201 ft 125 kts 246°
2026-04-21 15:03 10.82235 106.65670 222 ft 172 kts 245°
2026-04-21 15:03 10.81742 106.64425 740 ft 204 kts 245°
2026-04-21 15:04 10.81498 106.62996 1405 ft 215 kts 272°
2026-04-21 15:04 10.82097 106.61551 1928 ft 232 kts 302°
2026-04-21 15:04 10.83032 106.60109 1938 ft 266 kts 299°
2026-04-21 15:04 10.83909 106.58432 1928 ft 271 kts 294°
2026-04-21 15:05 10.84738 106.56668 2046 ft 277 kts 294°
2026-04-21 15:05 10.87549 106.54035 2027 ft 272 kts 345°
2026-04-21 15:05 10.89358 106.53979 1945 ft 254 kts 19°
2026-04-21 15:06 10.90808 106.54884 1979 ft 244 kts 54°
2026-04-21 15:06 10.91663 106.56350 2025 ft 243 kts 68°
2026-04-21 15:06 10.92394 106.57925 2002 ft 248 kts 70°
2026-04-21 15:06 10.93109 106.59515 2000 ft 237 kts 69°
2026-04-21 15:07 10.93785 106.60991 1976 ft 226 kts 69°
2026-04-21 15:07 10.94446 106.62432 1969 ft 224 kts 70°
2026-04-21 15:07 10.95112 106.63870 1979 ft 221 kts 70°
2026-04-21 15:07 10.95744 106.65263 2031 ft 219 kts 70°
2026-04-21 15:08 10.96398 106.66679 2005 ft 223 kts 69°
2026-04-21 15:08 10.97069 106.68127 2006 ft 223 kts 70°
2026-04-21 15:08 10.97737 106.69547 1995 ft 222 kts 69°
2026-04-21 15:08 10.98345 106.70985 1988 ft 218 kts 82°
2026-04-21 15:09 10.98107 106.72431 2002 ft 207 kts 121°
2026-04-21 15:09 10.97256 106.73610 2007 ft 206 kts 128°
2026-04-21 15:09 10.96378 106.74761 2002 ft 207 kts 128°
2026-04-21 15:09 10.95487 106.75926 2001 ft 207 kts 128°
2026-04-21 15:10 10.94601 106.77072 1997 ft 207 kts 128°
2026-04-21 15:10 10.93703 106.78236 1996 ft 207 kts 128°
2026-04-21 15:10 10.92824 106.79389 2001 ft 208 kts 128°
2026-04-21 15:10 10.91915 106.80570 2008 ft 212 kts 130°
2026-04-21 15:11 10.90654 106.81337 1998 ft 219 kts 168°
2026-04-21 15:11 10.89119 106.81177 2024 ft 225 kts 189°
2026-04-21 15:11 10.87613 106.80645 1988 ft 234 kts 209°
2026-04-21 15:11 10.86387 106.79527 2010 ft 235 kts 219°
2026-04-21 15:12 10.85620 106.78108 2093 ft 228 kts 258°
2026-04-21 15:12 10.85626 106.76533 1895 ft 217 kts 269°
2026-04-21 15:12 10.85642 106.75136 1819 ft 172 kts 262°
2026-04-21 15:12 10.85416 106.74045 1638 ft 148 kts 243°
2026-04-21 15:13 10.85084 106.73111 1372 ft 143 kts 242°
2026-04-21 15:13 10.84735 106.72197 1216 ft 133 kts 242°
2026-04-21 15:13 10.84384 106.71296 1040 ft 137 kts 243°
2026-04-21 15:13 10.84047 106.70418 871 ft 133 kts 243°
2026-04-21 15:14 10.83713 106.69544 702 ft 133 kts 244°
2026-04-21 15:14 10.83379 106.68664 535 ft 132 kts 244°
2026-04-21 15:14 10.83051 106.67798 392 ft 127 kts 245°
2026-04-21 15:14 10.82733 106.66960 219 ft 124 kts 245°
2026-04-21 15:15 10.82419 106.66142 37 ft 122 kts 245°
2026-04-21 15:15 10.82142 106.65414 29 ft 93 kts 249°
2026-04-21 15:15 10.81995 106.65015 26 ft 37 kts 251°
2026-04-21 15:15 10.81899 106.64788 25 ft 34 kts 245°
2026-04-21 15:16 10.81810 106.64654 25 ft 10 kts 224°
2026-04-21 15:16 10.81749 106.64597 24 ft 12 kts 221°
2026-04-21 15:16 10.81677 106.64537 23 ft 12 kts 222°
2026-04-21 15:16 10.81624 106.64481 23 ft 10 kts 231°
2026-04-21 15:17 10.81585 106.64413 23 ft 11 kts 241°
2026-04-21 15:17 10.81551 106.64335 23 ft 12 kts 227°
2026-04-21 15:17 10.81476 106.64316 23 ft 11 kts 161°
2026-04-21 15:17 10.81394 106.64347 23 ft 12 kts 159°
2026-04-21 15:18 10.81310 106.64379 22 ft 13 kts 160°
2026-04-21 15:18 10.81243 106.64418 23 ft 9 kts 92°
2026-04-21 15:18 10.81266 106.64488 23 ft 11 kts 70°
2026-04-21 15:18 10.81296 106.64566 22 ft 12 kts 69°
2026-04-21 15:19 10.81328 106.64654 23 ft 14 kts 69°
2026-04-21 15:19 10.81367 106.64753 23 ft 15 kts 69°
2026-04-21 15:19 10.81410 106.64870 23 ft 18 kts 69°
2026-04-21 15:19 10.81458 106.64997 23 ft 19 kts 69°
2026-04-21 15:20 10.81511 106.65136 23 ft 18 kts 69°
2026-04-21 15:20 10.81557 106.65258 25 ft 19 kts 69°
2026-04-21 15:20 10.81609 106.65404 26 ft 23 kts 69°
2026-04-21 15:20 10.81668 106.65552 26 ft 19 kts 69°
2026-04-21 15:21 10.81706 106.65655 26 ft 9 kts 73°
2026-04-21 15:21 10.81718 106.65727 26 ft 11 kts 83°
2026-04-21 15:21 10.81698 106.65811 26 ft 12 kts 115°
2026-04-21 15:21 10.81684 106.65900 26 ft 13 kts 73°
2026-04-21 15:22 10.81720 106.65998 26 ft 16 kts 69°
2026-04-21 15:22 10.81750 106.66074 26 ft 8 kts 69°
2026-04-21 15:22 10.81771 106.66134 26 ft 9 kts 70°
2026-04-21 15:22 10.81794 106.66196 26 ft 7 kts 63°
2026-04-21 15:23 10.81831 106.66221 26 ft 6 kts 11°
2026-04-21 15:23 10.81859 106.66225 26 ft 3 kts 10°
2026-04-21 15:23 10.81868 106.66227 26 ft 0 kts